Regional Weather Roundup
Issued by NWS Charleston, SC

Current Version | Previous Version | Graphics & Text | Print | Product List | Glossary On
Versions: 1 2 3 4 5 6 7 8 9 10 11 12 13 14 15 16 17 18 19 20 21 22 23 24 25 26 27 28 29 30 31 32 33 34 35 36 37 38 39 40 41 42 43 44 45 46 47 48 49 50
000 ASUS42 KCHS 291611 RWRCHS REGIONAL WEATHER ROUNDUP NATIONAL WEATHER SERVICE CHARLESTON SC 1100 AM EST THU JAN 29 2015 NOTE: "FAIR" INDICATES FEW OR NO CLOUDS BELOW 12,000 FEET WITH NO SIGNIFICANT WEATHER AND/OR OBSTRUCTIONS TO VISIBILITY. NOT ALL STATIONS ARE QUALITY CONTROLLED BY THE NATIONAL WEATHER SERVICE. USE DATA WITH CAUTION...ESPECIALLY DEWPOINT OBSERVATIONS. SCZ027-030-031-034>040-042>050-291700- ...SOUTHEAST SOUTH CAROLINA... CITY SKY/WX TMP DP RH WIND PRES REMARKS N CHARLESTON MOSUNNY 51 27 39 CALM 30.38S WATERFRONT PRK N/A 55 N/A N/A CALM N/A MOUNT PLEASANT FAIR N/A N/A N/A SE5 30.37F PINOPOLIS N/A 46 23 39 CALM 30.30F MONCKS CORNER FAIR 50 25 37 S3 30.37F SUMMERVILLE FAIR 50 30 46 CALM 30.38F BEAUFORT MCAS PTSUNNY 51 33 50 CALM 30.38F BEAUFORT ARPT FAIR 52 37 58 CALM 30.37F HILTON HEAD IS SUNNY 50 37 62 N6 30.39S WALTERBORO SUNNY 52 18 25 S5 30.38F ALLENDALE FAIR 48 25 40 SE7 30.37S ...SOUTHERN MIDLANDS AND PEE DEE... CITY SKY/WX TMP DP RH WIND PRES REMARKS GEORGETOWN NOT AVBL KINGSTREE NOT AVBL ORANGEBURG SUNNY 48 23 37 SW8 30.36F BARNWELL FAIR 48 28 46 S6 30.37S AIKEN FAIR 48 27 43 S8 30.37F MANNING FAIR 48 28 46 S7 30.36F COLUMBIA PTSUNNY 49 23 36 VRB7 30.35F SUMTER SUNNY 47 22 37 S10 30.33F FLORENCE SUNNY 48 20 32 S9 30.34F MYRTLE BEACH MOSUNNY 46 23 39 SE8 30.39F N MYRTLE BEACH SUNNY 46 16 30 SE6 30.36F $$ GAZ063-065-086>088-099>101-113>116-118-119-134>141-150-291700- ...SOUTHEAST GEORGIA... CITY SKY/WX TMP DP RH WIND PRES REMARKS SAVANNAH ARPT PTSUNNY 52 33 48 CALM 30.39R HUNTER AAF SUNNY 53 37 53 VRB1 30.36S FORT STEWART SUNNY 52 35 52 E5 30.37R STATESBORO SUNNY 51 33 49 S9 30.37F SYLVANIA SUNNY 50 33 51 S6 30.37F CLAXTON FAIR 52 36 54 S5 30.37F ...CSRA...CENTRAL AND FAR SOUTHEAST GEORGIA... CITY SKY/WX TMP DP RH WIND PRES REMARKS THOMSON PTSUNNY 49 28 43 S7 30.39S AUGUSTA-BUSH MOSUNNY 49 28 44 SE8 30.35F AUGUSTA-DANIEL MOSUNNY 48 25 40 SE8 30.35F SWAINSBORO FAIR 52 14 22 S7 30.37S VIDALIA SUNNY 52 32 46 S9 30.37S EASTMAN FAIR 51 29 42 S10 30.38F HAZLEHURST FAIR 52 33 49 S7 30.36S ALMA SUNNY 52 36 54 VRB5 30.38R WAYCROSS SUNNY 56 41 57 S3 30.37S JESUP FAIR 55 41 58 CALM 30.38S BAXLEY FAIR 54 36 50 S7 30.37R BRUNSWICK SUNNY 55 41 58 E5 30.37F SAINT SIMONS SUNNY 56 41 57 VRB5 30.37R $$ SCZ027-028-034-036>038-045-046-048>050-GAZ119-141-291700- ...LAKE AND SUPPLEMENTAL COASTAL OBSERVATIONS... STATION/POSITION TIME TEMP WIND PRES WAVE SWELL AIR SEA DIR/SP/G HT/PER HT/PER/DIR (UTC) (F) (DEG/KT/KT) (MB) (FT/S) (FT/S/D) UPR LAKE MARION NOT AVBL WINYAH BAY 1445 45 40/ 4 1028.0 LAKE MURRAY 1500 45 200/ 9/ 11 1026.8F ACE BASIN NERRS NOT AVBL FORT PULASKI 1500 47 51 40/ 5/ 6 1028.9R SAPELO ISLAND 1500 51 350/ 4 1028.0S $$ ANZ835-935-AMZ111-154-330-350-352-354-370-450-454-472-291700- ...C-MAN AND BUOY OBSERVATIONS... STATION/POSITION TIME TEMP WIND PRES WAVE SWELL AIR SEA DIR/SP/G HT/PER HT/PER/DIR (UTC) (F) (DEG/KT/KT) (MB) (FT/S) (FT/S/D) BUOY 41004 1550 54 67 80/ 4/ 8 1028.2R 4/11 3/11 BUOY 41008 1550 54 54 50/ 6/ 6 1028.1F 3/ 9 3/100/ 9 FOLLY BEACH CMAN 1600 49 60/ 5/ 7 1029.0F CAPERS NEARSHORE 1500 47 50/ 8/ 10 N/A FRIPP NEARSHORE 1500 49 40/ 6/ 6 1027.7R STATION/POSITION TIME TEMP WIND PRES WAVE SWELL AIR SEA DIR/SP/G HT/PER HT/PER/DIR (UTC) (F) (DEG/KT/KT) (MB) (FT/S) (FT/S/D) 5E ST. MARYS GA NOT AVBL FRYING PAN BUOY 1550 48 66 350/ 4/ 8 1029.2R 3/ 9 3/100/ 9 BUOY 41025 1550 40 71 340/ 10/ 14 1027.6F 6/10 7/ 40/10 CAPE LOOKOUT NC 1500 37 350/ 4/ 6 1028.6R BUOY 41002 1550 56 72 340/ 12/ 17 1027.1F 8/11 7/ 30/11 BUOY 41010 1520 64 75 80/ 8/ 14 1026.8R ST AUGUSTINE FL 1600 55 350/ 13/ 13 1028.2R $$

USA.gov is the U.S. government's official web portal to all federal, state and local government web resources and services.